TimeCDT,TemperatureF,Dew PointF,Humidity,Sea Level PressureIn,VisibilityMPH,Wind Direction,Wind SpeedMPH,Gust SpeedMPH,PrecipitationIn,Events,Conditions,WindDirDegrees,DateUTC
12:53 AM,57.9,21.9,25,29.71,10.0,South,17.3,-,N/A,,Clear,180,2014-03-21 05:53:00
1:53 AM,60.1,21.0,22,29.68,10.0,South,25.3,34.5,N/A,,Clear,190,2014-03-21 06:53:00
2:53 AM,57.9,19.9,23,29.66,10.0,South,25.3,33.4,N/A,,Clear,190,2014-03-21 07:53:00
3:53 AM,55.9,19.0,24,29.67,10.0,SSW,16.1,-,N/A,,Clear,210,2014-03-21 08:53:00
4:53 AM,55.0,19.0,24,29.65,10.0,SSW,11.5,-,N/A,,Clear,210,2014-03-21 09:53:00
5:53 AM,57.9,19.0,22,29.64,10.0,SSW,15.0,-,N/A,,Clear,210,2014-03-21 10:53:00
6:53 AM,53.1,19.9,27,29.69,10.0,West,6.9,-,N/A,,Clear,270,2014-03-21 11:53:00
7:53 AM,50.0,19.9,31,29.72,10.0,SW,6.9,-,N/A,,Clear,220,2014-03-21 12:53:00
8:53 AM,55.0,15.1,21,29.78,10.0,NW,15.0,-,N/A,,Clear,320,2014-03-21 13:53:00
9:53 AM,55.9,21.0,26,29.81,10.0,North,18.4,26.5,N/A,,Clear,350,2014-03-21 14:53:00
10:53 AM,57.9,23.0,26,29.83,10.0,North,20.7,26.5,N/A,,Clear,360,2014-03-21 15:53:00
11:53 AM,60.1,19.9,21,29.87,10.0,North,21.9,34.5,N/A,,Clear,360,2014-03-21 16:53:00
12:53 PM,60.1,23.0,24,29.89,10.0,North,26.5,32.2,N/A,,Clear,10,2014-03-21 17:53:00
1:53 PM,64.0,25.0,23,29.89,10.0,NNE,23.0,33.4,N/A,,Clear,20,2014-03-21 18:53:00
2:53 PM,66.0,26.1,22,29.88,10.0,NNE,21.9,31.1,N/A,,Clear,30,2014-03-21 19:53:00
3:53 PM,66.9,24.1,20,29.88,10.0,NNE,23.0,31.1,N/A,,Clear,20,2014-03-21 20:53:00
4:53 PM,64.0,24.1,22,29.91,10.0,NNE,24.2,29.9,N/A,,Clear,20,2014-03-21 21:53:00
5:53 PM,63.0,23.0,22,29.94,10.0,NNE,19.6,29.9,N/A,,Clear,20,2014-03-21 22:53:00
6:53 PM,61.0,21.0,21,29.97,10.0,NNE,23.0,29.9,N/A,,Clear,30,2014-03-21 23:53:00
7:53 PM,55.9,21.0,26,30.01,10.0,NNE,11.5,-,N/A,,Clear,20,2014-03-22 00:53:00
8:53 PM,51.1,21.0,31,30.04,10.0,NNE,9.2,-,N/A,,Clear,20,2014-03-22 01:53:00
9:53 PM,45.0,21.0,39,30.06,10.0,NNE,5.8,-,N/A,,Clear,30,2014-03-22 02:53:00
10:53 PM,44.1,21.0,40,30.09,10.0,NNE,6.9,-,N/A,,Clear,30,2014-03-22 03:53:00
11:53 PM,39.0,21.0,49,30.05,10.0,NE,10.4,-,N/A,,Clear,50,2014-03-22 04:53:00